Weather History for Granada, Spain

Change the Weather History Date:

Sunday, June 30, 2013

  Actual Average Record
Temperature  
Mean Temperature 78 °F -  
Max Temperature 97 °F 92 °F 100 °F (2000)
Min Temperature 60 °F 59 °F 48 °F (1997)
Cooling Degree Days 14    
Growing Degree Days 28 (Base 50)    
Moisture  
Dew Point 44 °F    
Average Humidity 29    
Maximum Humidity 59    
Minimum Humidity 9    
Precipitation  
Precipitation 0.00 in - - ()
Sea Level Pressure  
Sea Level Pressure 30.05 in    
Wind  
Wind Speed 3 mph ()    
Max Wind Speed 14 mph    
Max Gust Speed -    
Visibility 18.2 miles    
Events      
Averages and records for this station are not official NWS values.
T = Trace of Precipitation, MM = Missing Value Source: Averaged Metar Reports

Daily Weather History Graph

Daily Weather History Graph

Search for Another Location

Airport:

Trip Planner

Search our weather history database for the weather conditions in past years. The results will help you decide how hot, cold, wet, or windy it might be!

Date:

Astronomy

Jun. 30, 2013 Rise Set
Actual Time 6:58 AM CEST 9:39 PM CEST
Civil Twilight 6:27 AM CEST 10:10 PM CEST
Nautical Twilight 5:48 AM CEST 10:48 PM CEST
Astronomical Twilight 5:05 AM CEST 11:31 PM CEST
Moon 1:42 AM CEST (6/30) 2:45 PM CEST (6/30)
Length of Visible Light 15h 42m
Length of Day
14h 41m
Waning Gibbous, 48% of the Moon is Illuminated
Jun 30
Waning Gibbous
Jul 8
New
Jul 16
First Quarter
Jul 22
Full
Jul 29
Last Quarter

Hourly Weather History & Observations

Time (CEST) Temp. Dew Point Humidity Pressure Visibility Wind Dir Wind Speed Gust Speed Precip Events Conditions
2:00 AM 67 °F 49 °F 43% 30.12 in 16 mi NE 2.3 mph - -  
6:00 AM 62.6 °F 44.6 °F 52% 30.12 in - SSE 3.5 mph - N/A   Clear
6:30 AM 62.6 °F 44.6 °F 52% 30.12 in - Variable 2.3 mph - N/A   Clear
7:00 AM 60.8 °F 46.4 °F 59% 30.12 in - Variable 2.3 mph - N/A   Clear
7:30 AM 60.8 °F 46.4 °F 59% 30.12 in - Calm Calm - N/A   Clear
8:00 AM 62 °F 46 °F 45% 30.10 in 19 mi Calm Calm - -  
8:00 AM 62.6 °F 46.4 °F 55% 30.12 in - Calm Calm - N/A   Clear
8:30 AM 68.0 °F 46.4 °F 46% 30.12 in - Calm Calm - N/A   Clear
9:00 AM 69.8 °F 48.2 °F 46% 30.12 in - Variable 2.3 mph - N/A   Clear
9:30 AM 71.6 °F 46.4 °F 41% 30.12 in - Variable 2.3 mph - N/A   Clear
10:00 AM 75.2 °F 42.8 °F 31% 30.12 in - Variable 2.3 mph - N/A   Clear
10:30 AM 77.0 °F 44.6 °F 32% 30.12 in - Variable 2.3 mph - N/A   Clear
11:00 AM 78.8 °F 41.0 °F 26% 30.12 in - Variable 1.2 mph - N/A   Clear
11:30 AM 80.6 °F 41.0 °F 24% 30.12 in - Variable 3.5 mph - N/A   Clear
12:00 PM 82.4 °F 42.8 °F 25% 30.09 in - East 5.8 mph - N/A   Clear
12:30 PM 86.0 °F 42.8 °F 22% 30.09 in - ENE 5.8 mph - N/A   Clear
1:00 PM 87.8 °F 41.0 °F 19% 30.09 in - ENE 4.6 mph - N/A   Clear
1:30 PM 87.8 °F 37.4 °F 17% 30.09 in - Variable 2.3 mph - N/A   Clear
2:00 PM 90 °F 40 °F 9% 29.95 in 19 mi NW 3.5 mph - -  
2:00 PM 89.6 °F 39.2 °F 17% 30.06 in - NW 3.5 mph - N/A   Clear
2:30 PM 91.4 °F 39.2 °F 16% 30.06 in - Variable 1.2 mph - N/A   Clear
3:00 PM 91.4 °F 39.2 °F 16% 30.06 in - Variable 2.3 mph - N/A   Clear
3:30 PM 93.2 °F 37.4 °F 14% 30.04 in - Variable 1.2 mph - N/A   Clear
4:00 PM 93.2 °F 37.4 °F 14% 30.04 in - Variable 3.5 mph - N/A   Clear
4:30 PM 95.0 °F 39.2 °F 14% 30.04 in - Variable 2.3 mph - N/A   Clear
5:00 PM 95.0 °F 37.4 °F 13% 30.01 in - Variable 1.2 mph - N/A   Clear
5:30 PM 95.0 °F 39.2 °F 14% 30.01 in - Variable 2.3 mph - N/A   Clear
6:00 PM 96.8 °F 39.2 °F 14% 29.98 in - Variable 2.3 mph - N/A   Clear
6:30 PM 95.0 °F 42.8 °F 16% 29.98 in - SSE 3.5 mph - N/A   Clear
7:00 PM 95.0 °F 44.6 °F 18% 29.98 in - Variable 5.8 mph - N/A   Clear
7:30 PM 93.2 °F 46.4 °F 20% 29.98 in - SSW 8.1 mph - N/A   Clear
8:00 PM 92 °F 46 °F 12% 29.84 in 19 mi WSW 6.9 mph - -  
8:00 PM 91.4 °F 48.2 °F 23% 29.98 in - SSW 6.9 mph - N/A   Clear
8:30 PM 87.8 °F 50.0 °F 27% 29.98 in - SSW 8.1 mph - N/A   Clear
9:00 PM 86.0 °F 50.0 °F 29% 30.01 in - South 6.9 mph - N/A   Clear
9:30 PM 82.4 °F 48.2 °F 30% 30.01 in - South 11.5 mph - N/A   Clear
10:00 PM 78.8 °F 48.2 °F 34% 30.01 in - South 13.8 mph - N/A   Clear
10:30 PM 77.0 °F 48.2 °F 36% 30.04 in - SSW 5.8 mph - N/A   Clear
11:00 PM 77.0 °F 48.2 °F 36% 30.06 in - Calm Calm - N/A   Clear